Content
SEND FEEDBACK

Daily
Averages
Monthly
Summary
United States of America

SOUTH LAKE TAHOE, CALIFORNIA


Home > North America > United States > California
Elevation: 1908 meters     Latitude: 38 53N     Longitude: 119 59W

WEATHER
 
SELECT A DAY
Number of Records: 176,980;   Date Range: 1/1/95 - 10/20/14
 
SHARE

PRINT THIS DATA

[ ← Previous Day ]
WEATHER ALMANAC - 16 JULY, 2013
[ Next Day → ]
[ °F ]   °C
Weather ElementAverageHighLow
Temperature18.3 °C25 °C (1:53 pm)8.9 °C (5:53 am)
Dewpoint1.7 °C5.6 °C (1:53 am)-1.7 °C (8:53 am)
Humidity38.1 %69 % (6:53 am)17 % (1:53 pm)
Barometer1014.2 hPa1018.3 hPa (11:53 pm)1011.9 hPa (1:53 am)
Wind Speed9.2 km/h22.2 km/h (1:53 pm)
Wind Gust40.7 km/h (4:53 pm)
Weather ElementAverage
Visibility16.1 km
Wind DirectionESE (111.7 °)

Weather ElementTotal
Precipitation---
Heating Degree Days1.4 (Base 18.3)
Growing Degree Days6.9 (Base 10)
Averaged from 23 records on 16 July, 2013
WEATHER CONDITIONS BREAKOUT
WIND DIRECTION BREAKOUT
WEATHER BY HOUR - 16 JULY, 2013
[ °F ]   °C
Local TimeTemperatureDewpointHumidityBarometerVisibilityWind DirectionWind SpeedGust SpeedPrecipitationEventsConditions
1:53 AM12.8 °C5.6 °C62 %1011.9 hPa16.1 kmCalmMostly Cloudy
2:53 AM11.7 °C5 °C64 %1011.9 hPa16.1 kmCalmScattered Clouds
3:53 AM11.1 °C4.4 °C63 %1011.9 hPa16.1 kmCalmPartly Cloudy
4:53 AM10 °C4.4 °C68 %1012.2 hPa16.1 kmCalmClear
5:53 AM8.9 °C3.3 °C68 %1012.9 hPa16.1 kmCalmClear
6:53 AM9.4 °C3.9 °C69 %1013.2 hPa16.1 kmSouth (190°)5.6 km/hClear
7:53 AM19.4 °C-0.6 °C26 %1012.5 hPa16.1 kmSouth (190°)14.8 km/hClear
8:53 AM21.7 °C-1.7 °C21 %1012.5 hPa16.1 kmSouth (190°)16.7 km/hClear
9:53 AM22.2 °C-1.1 °C21 %1012.5 hPa16.1 kmVariable11.1 km/hClear
10:53 AM22.8 °C0 °C22 %1013.2 hPa16.1 kmCalmClear
11:53 AM23.9 °C0.6 °C22 %1013.9 hPa16.1 kmVariable11.1 km/h29.6 km/hClear
12:53 PM24.4 °C0 °C20 %1013.9 hPa16.1 kmSSW (200°)16.7 km/h33.3 km/hClear
1:53 PM25 °C-1.7 °C17 %1014.2 hPa16.1 kmSouth (190°)22.2 km/h33.3 km/hClear
2:53 PM25 °C-1.7 °C17 %1014.6 hPa16.1 kmSSW (200°)18.5 km/h31.5 km/hClear
3:53 PM25 °C-1.1 °C18 %1014.6 hPa16.1 kmSW (220°)16.7 km/h35.2 km/hClear
4:53 PM25 °C-0.6 °C19 %1014.9 hPa16.1 kmSSW (200°)18.5 km/h40.7 km/hClear
5:53 PM23.3 °C1.7 °C24 %1015.2 hPa16.1 kmSSW (210°)11.1 km/h31.5 km/hClear
6:53 PM21.7 °C2.2 °C28 %1016.3 hPa16.1 kmSouth (190°)16.7 km/hClear
7:53 PM19.4 °C3.3 °C34 %1015.2 hPa16.1 kmSSW (200°)9.3 km/hClear
8:53 PM18.3 °C3.3 °C37 %1015.6 hPa16.1 kmSSW (210°)11.1 km/hClear
9:53 PM16.1 °C3.9 °C44 %1016.9 hPa16.1 kmSouth (180°)9.3 km/hClear
10:53 PM12.2 °C3.9 °C57 %1017.9 hPa16.1 kmCalmClear
11:53 PM10.6 °C2.2 °C56 %1018.3 hPa16.1 kmCalmClear
Hourly data recorded from KTVL, located 0 kilometers away from South Lake Tahoe, California







STORIES FROM OUR PARTNERS